Ypsilanti, MI

11:47 AM EST on January 20, 2017 (GMT -0500)
Willow Run

Weather History for KYIP - March, 2013

Change the Weather History Date:

Friday, March 29, 2013

  Actual Average Record
Temperature  
Mean Temperature 42 °F -  
Max Temperature 55 °F 52 °F 75 °F (1981)
Min Temperature 30 °F 35 °F 19 °F (2011)
Degree Days  
Heating Degree Days 23    
Moisture  
Dew Point 20 °F    
Average Humidity 43    
Maximum Humidity 64    
Minimum Humidity 23    
Precipitation  
Precipitation 0.00 in - - ()
Sea Level Pressure  
Sea Level Pressure 30.25 in    
Wind  
Wind Speed 7 mph (NW)    
Max Wind Speed 10 mph    
Max Gust Speed -    
Visibility 10 miles    
Events      
Averages and records for this station are not official NWS values.
T = Trace of Precipitation, MM = Missing Value Source: NWS Daily Summary

Daily Weather History Graph

Daily Weather History Graph

Search for Another Location

Airport or City:

Trip Planner

Search our weather history database for the weather conditions in past years. The results will help you decide how hot, cold, wet, or windy it might be!

Date:

Astronomy

Mar. 29, 2013 Rise Set
Actual Time 7:21 AM EDT 7:56 PM EDT
Civil Twilight 6:53 AM EDT 8:25 PM EDT
Nautical Twilight 6:19 AM EDT 8:58 PM EDT
Astronomical Twilight 5:45 AM EDT 9:32 PM EDT
Moon 10:59 PM EDT (3/29) 8:26 AM EDT (3/29)
Length of Visible Light 13h 31m
Length of Day
12h 35m
Waning Gibbous, 93% of the Moon is Illuminated
Mar 29
Waning Gibbous
Apr 3
Last Quarter
Apr 10
New
Apr 18
First Quarter
Apr 25
Full

Hourly Weather History & Observations

Time (EDT) Temp. Windchill Dew Point Humidity Pressure Visibility Wind Dir Wind Speed Gust Speed Precip Events Conditions
12:53 AM 39.9 °F 33.4 °F 24.1 °F 53% 30.27 in 10.0 mi WNW 10.4 mph - N/A   Clear
1:53 AM 37.0 °F 30.4 °F 23.0 °F 57% 30.27 in 10.0 mi NW 9.2 mph - N/A   Clear
2:53 AM 35.1 °F 28.6 °F 21.9 °F 59% 30.27 in 10.0 mi WNW 8.1 mph - N/A   Clear
3:53 AM 33.1 °F 26.1 °F 21.0 °F 61% 30.27 in 10.0 mi NW 8.1 mph - N/A   Clear
4:53 AM 33.1 °F 26.9 °F 21.0 °F 61% 30.27 in 10.0 mi WNW 6.9 mph - N/A   Clear
5:53 AM 32.0 °F 25.6 °F 21.0 °F 64% 30.27 in 10.0 mi WNW 6.9 mph - N/A   Clear
6:53 AM 30.9 °F 24.3 °F 19.9 °F 64% 30.28 in 10.0 mi WNW 6.9 mph - N/A   Clear
7:53 AM 30.9 °F 25.2 °F 19.9 °F 64% 30.29 in 10.0 mi NW 5.8 mph - N/A   Clear
8:53 AM 37.9 °F 32.7 °F 21.9 °F 53% 30.29 in 10.0 mi NW 6.9 mph - N/A   Clear
9:53 AM 42.1 °F 36.1 °F 19.9 °F 41% 30.29 in 10.0 mi NW 10.4 mph - N/A   Clear
10:53 AM 45.0 °F 40.6 °F 19.0 °F 36% 30.28 in 10.0 mi West 8.1 mph - N/A   Clear
11:53 AM 48.9 °F - 19.0 °F 31% 30.28 in 10.0 mi West 6.9 mph - N/A   Clear
12:53 PM 50.0 °F - 18.0 °F 28% 30.27 in 10.0 mi Calm Calm - N/A   Clear
1:53 PM 51.1 °F - 18.0 °F 27% 30.25 in 10.0 mi WNW 4.6 mph - N/A   Clear
2:53 PM 53.1 °F - 17.1 °F 24% 30.23 in 10.0 mi Calm Calm - N/A   Clear
3:53 PM 54.0 °F - 17.1 °F 23% 30.21 in 10.0 mi Variable 4.6 mph - N/A   Clear
4:53 PM 53.1 °F - 17.1 °F 24% 30.20 in 10.0 mi Variable 3.5 mph - N/A   Partly Cloudy
5:53 PM 52.0 °F - 17.1 °F 25% 30.20 in 10.0 mi NW 3.5 mph - N/A   Clear
6:53 PM 54.0 °F - 18.0 °F 24% 30.20 in 10.0 mi North 4.6 mph - N/A   Partly Cloudy
7:53 PM 48.0 °F - 19.0 °F 32% 30.21 in 10.0 mi NW 8.1 mph - N/A   Scattered Clouds
8:53 PM 45.0 °F 42.6 °F 19.9 °F 37% 30.21 in 10.0 mi NW 4.6 mph - N/A   Clear
9:53 PM 39.9 °F 36.7 °F 19.9 °F 45% 30.23 in 10.0 mi NW 4.6 mph - N/A   Clear
10:53 PM 37.9 °F - 19.9 °F 48% 30.22 in 10.0 mi Calm Calm - N/A   Clear
11:53 PM 36.0 °F - 21.0 °F 55% 30.22 in 10.0 mi Calm Calm - N/A   Clear